Regional Weather Roundup
Issued by NWS

Home | Current Version | Previous Version | Text Only | Print | Product List | Glossary On
Versions: 1 2 3 4 5 6 7 8 9 10 11 12 13 14 15 16 17 18 19 20 21 22 23 24 25 26 27 28 29 30 31 32 33 34 35 36 37 38 39 40 41 42 43 44 45 46 47 48 49 50
000
ASUS43 KLSX 210210
RWRMO

WEATHER SUMMARY FOR MISSOURI
NATIONAL WEATHER SERVICE SPRINGFIELD MO
900 PM CDT THU JUL 20 2017

NOTE: "FAIR" INDICATES FEW OR NO CLOUDS BELOW 12,000 FEET WITH NO
       SIGNIFICANT WEATHER AND/OR OBSTRUCTIONS TO VISIBILITY.
       CURRENT SKY AND/OR WEATHER CONDITIONS ARE NOT AVAILABLE FOR
       CHILLICOTHE AND FARMINGTON.

MOZ001>031-035>038-043-044-053-054-210300-
...NORTHERN AND WESTERN MISSOURI...

CITY           SKY/WX    TMP DP  RH WIND       PRES   REMARKS
KANSAS CTY INT PTCLDY    85  75  72 S10       29.94F HX  93
KANSAS C DTWN  CLEAR     92  75  57 S12       29.93S HX 103
LEE`S SUMMIT   CLEAR     89  76  65 S12       29.96F HX 100
ST JOSEPH      CLEAR     85  79  82 S7        29.91F HX  98
CHILLICOTHE      N/A     87  80  79 S6        29.94S HX 103
KIRKSVILLE     CLEAR     83  78  85 S5        29.95F HX  93

$$
MOZ066>068-077>081-088>096-101>105-210300-
...SOUTHWEST MISSOURI...

CITY           SKY/WX    TMP DP  RH WIND       PRES   REMARKS
SPRINGFIELD    CLEAR     85  72  65 S5        30.03R HX  91
JOPLIN         CLEAR     86  74  67 S3        30.01S HX  94
BRANSON        PTCLDY    84  72  65 CALM      30.05S

$$
MOZ032>034-039>042-045>050-055>058-069>072-210300-
...CENTRAL MISSOURI...

CITY           SKY/WX    TMP DP  RH WIND       PRES   REMARKS
COLUMBIA       CLEAR     88  74  63 CALM      29.97F HX  96
JEFFERSON CITY CLEAR     86  77  74 CALM      29.95S HX  97
ROLLA          CLEAR     83  72  69 S6        30.00R
WHITEMAN AFB   CLEAR     84  80  88 S8        29.96S HX  98
WARRENSBURG    CLEAR     84  73  70 S5        29.96S HX  91
OSAGE BEACH    CLEAR     83  76  79 SW5       29.99S HX  91

$$
MOZ051-052-059>065-210300-
...EAST CENTRAL MISSOURI...

CITY           SKY/WX    TMP DP  RH WIND       PRES   REMARKS
ST LOUIS INTL  PTCLDY    94  72  48 W6        29.96S HX 102
SPIRIT OF STL  PTCLDY    84  77  79 CALM      29.95S HX  94
ST CHARLES     CLEAR     85  77  77 MISG      29.94S HX  95

$$
MOZ072>076-082>087-097>100-106>115-210300-
...SOUTH CENTRAL AND SOUTHEAST MISSOURI...

CITY           SKY/WX    TMP DP  RH WIND       PRES   REMARKS
CAPE GIRARDEAU CLEAR     82  74  76 S7        29.98F
FARMINGTON     CLEAR     84  75  74 S6        30.01S HX  92
POPLAR BLUFF   CLEAR     86  79  79 S5        29.99R HX  99
WEST PLAINS    CLEAR     85  72  65 S6        30.06R HX  91

$$




USA.gov is the U.S. government's official web portal to all federal, state and local government web resources and services.